TimeEST,TemperatureF,Dew PointF,Humidity,Sea Level PressureIn,VisibilityMPH,Wind Direction,Wind SpeedMPH,Gust SpeedMPH,PrecipitationIn,Events,Conditions,WindDirDegrees,DateUTC
12:53 AM,26.1,19.9,78,30.06,7.0,North,9.2,-,0.00,Snow,Light Snow,350,2013-03-02 05:53:00
1:53 AM,26.1,19.9,78,30.06,10.0,North,6.9,-,0.00,,Overcast,350,2013-03-02 06:53:00
2:53 AM,26.1,19.9,78,30.05,10.0,NNW,6.9,-,0.00,Snow,Light Snow,340,2013-03-02 07:53:00
4:53 AM,25.0,19.0,78,30.04,10.0,NNW,6.9,-,N/A,,Overcast,330,2013-03-02 09:53:00
5:53 AM,25.0,19.0,78,30.05,10.0,NW,8.1,-,0.00,,Overcast,320,2013-03-02 10:53:00
7:53 AM,25.0,19.0,78,30.06,9.0,NNW,9.2,-,0.00,,Overcast,340,2013-03-02 12:53:00
8:03 AM,24.8,17.6,74,30.04,9.0,NNW,13.8,-,0.00,Snow,Light Snow,330,2013-03-02 13:03:00
8:11 AM,26.6,17.6,69,30.04,8.0,NNW,11.5,-,0.00,Snow,Light Snow,340,2013-03-02 13:11:00
8:53 AM,26.1,19.0,75,30.06,6.0,NNW,8.1,-,0.00,Snow,Light Snow,340,2013-03-02 13:53:00
9:53 AM,26.1,19.0,75,30.06,9.0,NNW,9.2,-,0.00,Snow,Light Snow,330,2013-03-02 14:53:00
10:53 AM,26.1,19.9,78,30.06,9.0,NW,10.4,-,0.00,Snow,Light Snow,320,2013-03-02 15:53:00
11:53 AM,27.0,19.0,72,30.06,9.0,NNW,11.5,-,0.00,Snow,Light Snow,330,2013-03-02 16:53:00
12:53 PM,27.0,19.0,72,30.05,10.0,NNW,9.2,-,0.00,,Overcast,330,2013-03-02 17:53:00
1:53 PM,27.0,18.0,69,30.04,10.0,NW,10.4,-,N/A,,Overcast,320,2013-03-02 18:53:00
2:15 PM,28.4,17.6,64,30.02,10.0,NW,10.4,-,N/A,,Overcast,320,2013-03-02 19:15:00
2:53 PM,28.0,19.0,69,30.04,10.0,NNW,11.5,-,0.00,,Overcast,330,2013-03-02 19:53:00
3:13 PM,26.6,19.4,74,30.01,10.0,NNW,10.4,17.3,N/A,,Overcast,340,2013-03-02 20:13:00
3:49 PM,26.6,19.4,74,30.01,8.0,NNW,11.5,-,0.00,Snow,Light Snow,340,2013-03-02 20:49:00
3:53 PM,27.0,19.0,72,30.04,9.0,NNW,10.4,-,0.00,,Overcast,330,2013-03-02 20:53:00
4:53 PM,28.0,18.0,66,30.04,10.0,NNW,11.5,-,0.00,,Overcast,340,2013-03-02 21:53:00
5:20 PM,26.6,17.6,69,30.02,10.0,NW,9.2,-,N/A,,Overcast,320,2013-03-02 22:20:00
5:27 PM,26.6,17.6,69,30.03,10.0,NW,11.5,-,N/A,,Overcast,320,2013-03-02 22:27:00
5:53 PM,26.1,18.0,71,30.06,10.0,NNW,9.2,-,N/A,,Overcast,330,2013-03-02 22:53:00
6:53 PM,26.1,18.0,71,30.07,10.0,North,9.2,-,N/A,,Overcast,350,2013-03-02 23:53:00
8:35 PM,24.8,19.4,80,30.05,10.0,NW,8.1,-,0.00,,Overcast,310,2013-03-03 01:35:00
8:53 PM,25.0,19.0,78,30.07,10.0,NW,5.8,-,0.00,,Overcast,320,2013-03-03 01:53:00
9:53 PM,25.0,18.0,75,30.07,10.0,NW,11.5,-,N/A,,Overcast,320,2013-03-03 02:53:00
10:53 PM,25.0,17.1,72,30.07,10.0,NW,10.4,-,N/A,,Overcast,320,2013-03-03 03:53:00
11:53 PM,24.1,17.1,75,30.06,9.0,North,8.1,-,0.00,,Overcast,350,2013-03-03 04:53:00